Location: G�ndlingen
(48.0142°N, 7.6396°E)
Time: 02:54:31
(UTC+00:00)

BREEZE M DEB (TANK) - Pass Details

Date: 05 July 2020
Orbit: 285 x 14546 km, 49.5° (Epoch: 02 August)

Event Time Altitude Azimuth Distance (km) Brightness Sun altitude
Rises 21:19:57 0° 287° (WNW) 2,593 7.1 -13.2°
Reaches altitude 10° 21:22:34 10° 273° (W) 1,283 5.2 -13.4°
Maximum altitude 21:24:34 25° 211° (SSW) 634 2.9 -13.6°
Enters shadow 21:24:44 25° 203° (SSW) 637 2.8 -13.6°
